User: anonymous   Login
Location: Vancouver
(49.2500°N, 123.1330°W)
Time: 16:30:43
(UTC-08:00)
Language:

Oscar 11 - Orbit

View from above orbital plane
View from above orbital plane
View from above satellite
View from above satellite

Ground track
Ground track

The orbit data is extracted from the following two-line orbital elements,

1 14781U 84021B   15031.13369640  .00000867  00000-0  11547-3 0  7291
2 14781 097.8206 091.4784 0009612 151.9471 208.2262 14.82120368661723
Epoch (UTC): 31 January 2015 03:12:31
Eccentricity: 0.0009612
inclination: 97.8206°
perigee height: 616 km
apogee height: 629 km
right ascension of ascending node: 91.4784°
argument of perigee: 151.9471°
revolutions per day: 14.82120368
mean anomaly at epoch: 208.2262°
orbit number at epoch: 66172

The dashed part of the orbit path shows where the satellite is in the earth's shadow,  

DLR